Tracking 17844 objects as of 27-August-2016
HD Live streaming from Space Station
objects crossing your sky now

OSCAR 36 (UOSAT 12)

Track OSCAR 36 (UOSAT 12) now!
10-day predictions
OSCAR 36 (UOSAT 12) is classified as:


NORAD ID: 25693
Int'l Code: 1999-021A
Perigee: 633.1 km
Apogee: 639.9 km
Inclination: 64.6 °
Period: 97.3 minutes
Semi major axis: 7007 km
RCS: 1.4285 m2 (large)
Launch date: April 21, 1999
Source: United Kingdom (UK)
Launch site: TYURATAM MISSILE AND SPACE COMPLEX (TTMTR)
Uplink (MHz): 145.960
Downlink (MHz): 437.400/437.025
Beacon (MHz): 437.400
Mode: 38400bps FSK
Call sign: UO121-11 -12
Status: Inactive


Used for email and communication services to remote areas.
Your satellite tracking list
Your tracking list is empty





NASA's NSSDC Master Catalog

Two Line Element Set (TLE):
1 25693U 99021A   16240.46196666 -.00000043  00000-0  12882-4 0  9996
2 25693  64.5567 310.8960 0004858 304.2269  55.8375 14.80672464936674
Source of the keplerian elements: AFSPC

N2YO: 527